FW6610 Weather Reports


time (UTC)temp
F
wind
direction
speed
knots
gust
knots
rain 1hr
in
rain 24hr
in
rain mn
in
humidity
%
barometer
mb
20260508121029 47 307 1.7 11.3 0.00 0.00 0.00 59 1011.6
20260508120528 47 116 2.6 13.9 0.00 0.00 0.00 59 1011.6
20260508120043 47 315 4.3 13.9 0.00 0.00 0.00 58 1011.6
20260508115527 46 358 3.5 8.7 0.00 0.00 0.00 60 1011.5
20260508115028 46 262 2.6 8.7 0.00 0.00 0.00 62 1011.6
20260508114539 45 27 1.7 6.1 0.00 0.00 0.00 60 1011.5
20260508114029 45 65 2.6 7.0 0.00 0.00 0.00 61 1011.4
20260508113529 45 313 1.7 7.0 0.00 0.00 0.00 60 1011.4
20260508113035 45 314 1.7 7.0 0.00 0.00 0.00 62 1011.4
20260508112528 45 259 0.9 6.1 0.00 0.00 0.00 62 1011.5
20260508112029 44 36 1.7 3.5 0.00 0.00 0.00 63 1011.4
20260508111541 44 39 0.9 3.5 0.00 0.00 0.00 67 1011.4
20260508111030 43 351 0.9 3.5 0.00 0.00 0.00 69 1011.5
20260508110529 42 89 0.0 0.9 0.00 0.00 0.00 73 1011.5
20260508110051 40 139 0.0 1.7 0.00 0.00 0.00 74 1011.3
20260508105528 39 0 0.0 1.7 0.00 0.00 0.00 77 1011.2
20260508105029 38 131 0.0 0.9 0.00 0.00 0.00 80 1011.3
20260508104542 37 0 0.0 0.0 0.00 0.00 0.00 84 1011.3
20260508104028 36 0 0.0 0.0 0.00 0.00 0.00 87 1011.2
20260508103528 36 0 0.0 0.0 0.00 0.00 0.00 90 1011.3
20260508103037 35 0 0.0 0.0 0.00 0.00 0.00 91 1011.3
20260508102528 34 0 0.0 0.0 0.00 0.00 0.00 91 1011.3
20260508102029 33 0 0.0 0.0 0.00 0.00 0.00 90 1011.3
20260508101538 33 0 0.0 0.0 0.00 0.00 0.00 89 1011.2
20260508101032 33 0 0.0 0.0 0.00 0.00 0.00 89 1011.1
20260508100529 33 0 0.0 0.0 0.00 0.00 0.00 88 1011.1
20260508100045 33 0 0.0 0.0 0.00 0.00 0.00 88 1011.1
20260508095531 34 0 0.0 0.0 0.00 0.00 0.00 88 1010.8
20260508095030 34 0 0.0 0.0 0.00 0.00 0.00 88 1010.8
20260508094547 34 0 0.0 0.0 0.00 0.00 0.00 88 1010.8
20260508094029 35 0 0.0 0.0 0.00 0.00 0.00 88 1010.6
20260508093528 35 0 0.0 0.0 0.00 0.00 0.00 88 1010.5
20260508093040 35 0 0.0 0.0 0.00 0.00 0.00 88 1010.4
20260508092528 36 0 0.0 0.0 0.00 0.00 0.00 87 1010.4
20260508092028 36 0 0.0 0.0 0.00 0.00 0.00 88 1010.4
20260508091541 36 0 0.0 0.0 0.00 0.00 0.00 87 1010.3
20260508091028 37 0 0.0 0.0 0.00 0.00 0.00 87 1010.2
20260508090529 37 0 0.0 0.9 0.00 0.00 0.00 87 1010.2
20260508090038 37 0 0.0 0.9 0.00 0.00 0.00 88 1010.3
20260508085527 37 224 0.0 0.0 0.00 0.00 0.00 88 1010.2
20260508085031 37 0 0.0 0.0 0.00 0.00 0.00 87 1010.0
20260508084543 36 0 0.0 0.0 0.00 0.00 0.00 87 1010.2
20260508084033 37 0 0.0 0.0 0.00 0.00 0.00 86 1010.3
20260508083528 37 0 0.0 0.0 0.00 0.00 0.00 86 1010.2
20260508083119 37 0 0.0 0.9 0.00 0.00 0.00 86 1010.1
20260508082528 37 0 0.0 0.9 0.00 0.00 0.00 86 1010.2
20260508082028 36 200 0.0 0.0 0.00 0.00 0.00 86 1010.4
20260508081552 36 199 0.0 0.0 0.00 0.00 0.00 85 1010.4
20260508081028 36 0 0.0 0.0 0.00 0.00 0.00 86 1010.4
20260508080528 36 0 0.0 0.0 0.00 0.00 0.00 84 1010.2
20260508080035 35 0 0.0 0.0 0.00 0.00 0.00 86 1010.2
20260508075528 35 0 0.0 0.0 0.00 0.00 0.00 87 1010.2
20260508075028 35 0 0.0 1.7 0.00 0.00 0.00 87 1010.1
20260508074539 35 0 0.0 1.7 0.00 0.00 0.00 88 1010.0
20260508074028 34 0 0.0 0.9 0.00 0.00 0.00 89 1010.0
20260508073529 34 0 0.0 0.0 0.00 0.00 0.00 88 1010.0
20260508073041 34 0 0.0 0.0 0.00 0.00 0.00 88 1010.0
20260508072528 34 0 0.0 0.0 0.00 0.00 0.00 88 1010.0
20260508072028 34 0 0.0 0.0 0.00 0.00 0.00 87 1010.0
20260508071544 34 0 0.0 0.0 0.00 0.00 0.00 87 1010.0
20260508071028 34 0 0.0 0.0 0.00 0.00 0.00 86 1009.9
20260508070531 34 0 0.0 0.0 0.00 0.00 0.00 86 1009.9
20260508070044 34 0 0.0 0.0 0.00 0.00 0.00 86 1009.9
20260508065525 34 0 0.0 0.0 0.00 0.00 0.00 86 1009.9
20260508065027 34 0 0.0 0.0 0.00 0.00 0.00 86 1009.8
20260508064601 34 0 0.0 0.0 0.00 0.00 0.00 85 1009.7
20260508064028 34 0 0.0 0.0 0.00 0.00 0.00 86 1009.6
20260508063528 34 0 0.0 0.0 0.00 0.00 0.00 84 1009.7
20260508063045 34 0 0.0 0.0 0.00 0.00 0.00 84 1009.6
20260508062524 35 0 0.0 0.0 0.00 0.00 0.00 83 1009.5
20260508062028 35 0 0.0 0.0 0.00 0.00 0.00 83 1009.5
20260508061543 35 0 0.0 0.0 0.00 0.00 0.00 84 1009.5
20260508061031 36 0 0.0 0.0 0.00 0.00 0.00 82 1009.5
20260508060529 36 0 0.0 0.0 0.00 0.00 0.00 82 1009.4
20260508060045 36 0 0.0 0.9 0.00 0.00 0.00 82 1009.4
20260508055528 37 0 0.0 0.9 0.00 0.00 0.00 81 1009.5
20260508055029 36 283 0.0 0.9 0.00 0.00 0.00 82 1009.3
20260508054540 36 0 0.0 0.9 0.00 0.00 0.00 81 1009.2
20260508054025 36 283 0.0 0.9 0.00 0.00 0.00 82 1009.3
20260508053526 36 0 0.0 1.7 0.00 0.00 0.00 82 1009.4
20260508053035 37 332 0.0 1.7 0.00 0.00 0.00 82 1009.4
20260508052527 37 321 0.0 0.9 0.00 0.00 0.00 81 1009.6
20260508052025 37 0 0.0 0.9 0.00 0.00 0.00 80 1009.6
20260508051538 38 0 0.0 0.9 0.00 0.00 0.00 79 1009.7
20260508051028 38 0 0.0 0.9 0.00 0.00 0.00 79 1009.7
20260508050529 38 295 0.0 0.9 0.00 0.00 0.00 78 1009.8
20260508050048 38 0 0.0 0.9 0.00 0.00 0.00 80 1009.9
20260508045528 38 0 0.0 0.9 0.00 0.00 0.00 80 1009.8
20260508045028 38 0 0.0 0.9 0.00 0.00 0.00 80 1009.8
20260508044543 38 0 0.0 0.9 0.00 0.00 0.00 79 1009.6
20260508044031 38 284 0.0 0.9 0.00 0.00 0.00 78 1009.6
20260508043533 38 0 0.0 0.9 0.00 0.00 0.00 78 1009.6
20260508043041 38 0 0.0 0.9 0.00 0.00 0.00 78 1009.8
20260508042529 38 0 0.0 0.0 0.00 0.00 0.00 78 1009.7
20260508042030 38 0 0.0 0.0 0.00 0.00 0.00 78 1009.9
20260508041548 38 0 0.0 0.9 0.00 0.00 0.00 78 1010.0
20260508041030 38 0 0.0 0.9 0.00 0.00 0.00 78 1010.0
20260508040529 38 300 0.0 0.9 0.00 0.00 0.00 79 1010.0
20260508040048 38 0 0.0 0.0 0.00 0.00 0.00 79 1010.2
20260508035531 39 0 0.0 0.0 0.00 0.00 0.00 79 1010.1
20260508035032 39 0 0.0 0.0 0.00 0.00 0.00 79 1010.0
20260508034544 39 0 0.0 0.0 0.00 0.00 0.00 78 1010.0
20260508034031 39 0 0.0 0.0 0.00 0.00 0.00 77 1010.0
20260508033531 40 0 0.0 0.0 0.00 0.00 0.00 76 1010.0
20260508033045 40 0 0.0 0.0 0.00 0.00 0.00 75 1010.0
20260508032531 40 0 0.0 0.0 0.00 0.00 0.00 74 1010.1
20260508032031 40 0 0.0 0.0 0.00 0.00 0.00 74 1010.0
20260508031541 41 0 0.0 0.0 0.00 0.00 0.00 73 1010.1
20260508031030 41 0 0.0 0.0 0.00 0.00 0.00 73 1010.1
20260508030530 41 0 0.0 0.0 0.00 0.00 0.00 73 1010.1
20260508030037 42 0 0.0 0.0 0.00 0.00 0.00 73 1010.2
20260508025530 42 0 0.0 0.0 0.00 0.00 0.00 75 1010.0
20260508025033 42 0 0.0 0.0 0.00 0.00 0.00 75 1010.0
20260508024541 43 0 0.0 0.0 0.00 0.00 0.00 73 1009.9
20260508024030 43 0 0.0 0.0 0.00 0.00 0.00 72 1010.0
20260508023530 42 0 0.0 0.0 0.00 0.00 0.00 71 1010.0
20260508023042 43 0 0.0 0.0 0.00 0.00 0.00 71 1010.0
20260508022529 43 0 0.0 0.0 0.00 0.00 0.00 71 1009.9
20260508022031 43 0 0.0 0.0 0.00 0.00 0.00 70 1009.9
20260508021541 43 0 0.0 0.0 0.00 0.00 0.00 70 1009.8
20260508021032 44 0 0.0 0.0 0.00 0.00 0.00 70 1009.8
20260508020529 44 0 0.0 0.9 0.00 0.00 0.00 67 1009.8
20260508020047 44 0 0.0 0.9 0.00 0.00 0.00 65 1009.6
20260508015530 44 0 0.0 0.0 0.00 0.01 0.00 64 1009.9
20260508015030 44 0 0.0 0.0 0.00 0.01 0.00 63 1009.8
20260508014542 45 0 0.0 0.0 0.00 0.01 0.00 64 1009.8
20260508014030 45 0 0.0 0.0 0.00 0.01 0.00 62 1009.9
20260508013530 45 0 0.0 0.0 0.00 0.01 0.00 62 1009.9
20260508013041 46 0 0.0 0.0 0.00 0.01 0.00 61 1010.0
20260508012530 46 0 0.0 0.9 0.00 0.01 0.00 60 1009.8
20260508012028 47 0 0.0 0.9 0.00 0.01 0.00 57 1009.6
20260508011549 47 0 0.0 0.9 0.00 0.01 0.00 55 1009.6
20260508011028 47 0 0.0 0.9 0.00 0.01 0.00 56 1009.5
20260508010525 48 0 0.0 0.9 0.00 0.01 0.00 56 1009.6
20260508010056 48 0 0.0 0.9 0.00 0.01 0.00 54 1009.3
20260508005532 48 0 0.0 0.9 0.00 0.06 0.00 52 1009.2
20260508005025 49 0 0.0 0.9 0.00 0.06 0.00 51 1009.2
20260508004555 50 0 0.0 2.6 0.00 0.06 0.00 48 1009.1
20260508004030 50 0 0.0 2.6 0.00 0.06 0.00 46 1009.1
20260508003524 51 0 0.0 5.2 0.00 0.06 0.00 45 1009.0
20260508003045 51 289 0.9 5.2 0.00 0.06 0.00 46 1008.9
20260508002525 51 21 0.9 5.2 0.00 0.06 0.00 45 1008.9
20260508002029 51 11 0.0 3.5 0.00 0.06 0.00 45 1008.8
20260508001545 51 0 0.9 3.5 0.00 0.06 0.00 44 1008.9
20260508001028 52 0 0.0 1.7 0.00 0.06 0.00 44 1008.8
20260508000533 52 0 0.0 3.5 0.00 0.06 0.00 42 1008.8
20260508000040 53 338 0.9 5.2 0.00 0.06 0.00 42 1008.9
20260507235527 53 301 0.9 5.2 0.00 0.06 0.00 42 1008.7
20260507235029 53 293 0.9 5.2 0.00 0.06 0.00 42 1008.7
20260507234535 53 266 1.7 5.2 0.00 0.06 0.00 40 1008.8
20260507234025 54 336 1.7 6.1 0.00 0.06 0.00 39 1008.6
20260507233528 54 44 2.6 7.0 0.00 0.06 0.00 39 1008.5
20260507233044 54 347 2.6 7.0 0.00 0.06 0.00 38 1008.5
20260507232525 54 309 1.7 7.0 0.00 0.06 0.00 38 1008.5
20260507232024 55 302 2.6 7.0 0.00 0.06 0.00 38 1008.5
20260507231540 55 343 1.7 7.0 0.00 0.06 0.00 38 1008.5
20260507231027 55 236 1.7 7.0 0.00 0.06 0.00 39 1008.5
20260507230530 55 253 0.9 7.0 0.00 0.06 0.00 38 1008.4
20260507230044 56 292 3.5 9.6 0.00 0.06 0.00 37 1008.5
20260507225525 56 285 3.5 10.4 0.00 0.07 0.00 36 1008.3
20260507225027 56 5 4.3 13.0 0.00 0.07 0.00 36 1008.3
20260507224557 57 341 5.2 15.6 0.00 0.07 0.00 36 1008.3
20260507224026 57 265 5.2 15.6 0.00 0.07 0.00 36 1008.5
20260507223528 57 342 2.6 10.4 0.00 0.07 0.00 36 1008.3
20260507223040 57 345 4.3 9.6 0.00 0.07 0.00 37 1008.3
20260507222530 58 297 4.3 11.3 0.00 0.07 0.00 37 1008.3
20260507222030 58 283 3.5 11.3 0.00 0.07 0.00 37 1008.2
20260507221538 58 325 2.6 10.4 0.00 0.07 0.00 36 1008.1
20260507221029 58 354 3.5 10.4 0.00 0.07 0.00 38 1008.1
20260507220529 58 18 4.3 10.4 0.00 0.07 0.00 37 1008.3
20260507220044 58 322 5.2 13.0 0.00 0.07 0.00 37 1008.3
20260507215530 58 302 6.1 13.0 0.00 0.13 0.00 37 1008.1
20260507215031 58 301 4.3 12.2 0.00 0.13 0.00 40 1008.3
20260507214542 58 341 3.5 15.6 0.00 0.13 0.00 40 1008.1
20260507214029 58 328 4.3 15.6 0.00 0.13 0.00 37 1008.2
20260507213530 59 294 7.0 15.6 0.00 0.13 0.00 38 1008.1
20260507213054 59 290 3.5 10.4 0.00 0.13 0.00 39 1008.1
20260507212530 59 264 5.2 13.0 0.00 0.13 0.00 36 1008.0
20260507212030 59 308 4.3 14.8 0.00 0.13 0.00 39 1007.9
20260507211544 58 16 6.1 14.8 0.00 0.13 0.00 39 1008.0
20260507211030 59 315 4.3 20.9 0.00 0.13 0.00 39 1008.0
20260507210530 59 323 3.5 20.9 0.00 0.13 0.00 39 1008.0
20260507210040 58 311 4.3 15.6 0.00 0.13 0.00 37 1007.8
20260507205530 59 261 5.2 13.0 0.00 0.16 0.00 39 1007.7
20260507205033 58 335 6.1 13.0 0.00 0.16 0.00 37 1007.8
20260507204548 59 343 6.1 11.3 0.00 0.16 0.00 40 1007.8
20260507204030 59 279 3.5 11.3 0.00 0.16 0.00 39 1007.9
20260507203530 58 352 4.3 11.3 0.00 0.16 0.00 38 1007.9
20260507203044 58 356 4.3 12.2 0.00 0.16 0.00 42 1008.0
20260507202529 58 325 4.3 15.6 0.00 0.16 0.00 40 1008.1
20260507202029 58 317 3.5 15.6 0.00 0.16 0.00 41 1007.9
20260507201544 58 303 7.0 15.6 0.00 0.16 0.00 38 1007.9
20260507201030 59 311 4.3 15.6 0.00 0.16 0.00 37 1007.9
20260507200530 58 302 7.0 15.6 0.00 0.16 0.00 40 1008.1
20260507200042 58 319 3.5 12.2 0.00 0.16 0.00 41 1008.1
20260507195530 58 318 4.3 12.2 0.00 0.19 0.00 39 1008.1
20260507195030 58 340 7.0 12.2 0.00 0.19 0.00 39 1008.1
20260507194539 59 335 5.2 19.1 0.00 0.19 0.00 40 1008.1
20260507194029 59 173 5.2 19.1 0.00 0.19 0.00 43 1008.0
20260507193532 59 154 6.1 19.1 0.00 0.19 0.00 39 1008.0
20260507193038 59 8 4.3 11.3 0.00 0.19 0.00 41 1008.0
20260507192529 59 295 4.3 13.0 0.00 0.19 0.00 42 1008.2
20260507192030 59 309 5.2 13.0 0.00 0.19 0.00 39 1008.2
20260507191545 59 244 5.2 11.3 0.00 0.19 0.00 41 1008.1
20260507191029 59 15 4.3 11.3 0.00 0.19 0.00 42 1008.2
20260507190530 58 342 6.1 11.3 0.00 0.19 0.00 43 1008.4
20260507190045 57 293 3.5 10.4 0.00 0.19 0.00 45 1008.4
20260507185530 57 315 1.7 6.1 0.00 0.23 0.00 45 1008.4
20260507185030 56 293 2.6 10.4 0.00 0.23 0.00 45 1008.5
20260507184541 56 295 2.6 10.4 0.00 0.23 0.00 43 1008.5
20260507184032 57 305 5.2 10.4 0.00 0.23 0.00 41 1008.5
20260507183534 58 349 4.3 9.6 0.00 0.23 0.00 41 1008.5
20260507183045 59 285 2.6 13.0 0.00 0.23 0.00 43 1008.7
20260507182529 59 263 3.5 13.0 0.00 0.23 0.00 41 1008.5
20260507182030 59 6 4.3 10.4 0.00 0.23 0.00 42 1008.6
20260507181542 58 324 4.3 10.4 0.00 0.23 0.00 43 1008.6
20260507181030 59 309 2.6 7.0 0.00 0.23 0.00 44 1008.6
20260507180530 59 348 2.6 9.6 0.00 0.23 0.00 40 1008.7
20260507180053 59 341 3.5 9.6 0.00 0.23 0.00 42 1008.7
20260507175530 58 327 4.3 9.6 0.00 0.29 0.00 41 1008.7
20260507175030 58 343 4.3 9.6 0.00 0.29 0.00 42 1008.8
20260507174546 58 8 5.2 9.6 0.00 0.29 0.00 40 1008.8
20260507174029 59 323 4.3 13.0 0.00 0.29 0.00 46 1008.8
20260507173529 59 309 4.3 13.0 0.00 0.29 0.00 42 1008.7
20260507173051 58 250 2.6 11.3 0.00 0.29 0.00 40 1008.7
20260507172529 59 328 5.2 11.3 0.00 0.29 0.00 43 1008.6
20260507172030 59 72 3.5 9.6 0.00 0.29 0.00 40 1008.9
20260507171544 59 290 3.5 9.6 0.00 0.29 0.00 42 1008.7
20260507171029 59 12 3.5 10.4 0.00 0.29 0.00 42 1008.8
20260507170530 59 354 3.5 10.4 0.00 0.29 0.00 39 1008.9
20260507170043 58 352 3.5 10.4 0.00 0.29 0.00 40 1008.8
20260507165530 58 328 3.5 14.8 0.00 0.29 0.00 41 1009.0
20260507165035 58 8 6.1 14.8 0.00 0.29 0.00 41 1009.0
20260507164554 58 351 5.2 12.2 0.00 0.29 0.00 42 1009.1
20260507164033 58 32 2.6 11.3 0.00 0.29 0.00 43 1009.1
20260507163529 58 34 3.5 8.7 0.00 0.29 0.00 44 1009.2
20260507163048 58 323 4.3 11.3 0.00 0.29 0.00 44 1009.4
20260507162530 58 335 3.5 11.3 0.00 0.29 0.00 43 1009.6
20260507162030 57 290 5.2 11.3 0.00 0.29 0.00 41 1009.6
20260507161545 57 217 3.5 15.6 0.00 0.29 0.00 44 1009.7
20260507161029 57 283 5.2 15.6 0.00 0.29 0.00 41 1009.7
20260507160533 57 359 6.1 15.6 0.00 0.29 0.00 42 1010.0
20260507160059 57 325 2.6 6.1 0.00 0.29 0.00 53 1009.9
20260507155529 57 69 2.6 8.7 0.00 0.29 0.00 45 1010.0
20260507155029 57 345 3.5 8.7 0.00 0.29 0.00 47 1009.9
20260507154544 57 20 3.5 9.6 0.00 0.29 0.00 43 1010.0
20260507154030 57 241 3.5 10.4 0.00 0.29 0.00 43 1009.9
20260507153529 57 324 2.6 10.4 0.00 0.29 0.00 49 1010.1
20260507153049 56 10 5.2 10.4 0.00 0.29 0.00 47 1010.1
20260507152529 56 346 3.5 12.2 0.00 0.29 0.00 44 1009.9
20260507152030 56 311 4.3 12.2 0.00 0.29 0.00 45 1010.1
20260507151539 55 332 4.3 12.2 0.00 0.29 0.00 44 1010.1
20260507151030 55 293 4.3 12.2 0.00 0.29 0.00 47 1010.2
20260507150533 55 8 5.2 12.2 0.00 0.29 0.00 44 1010.2
20260507150047 55 350 4.3 13.9 0.00 0.29 0.00 45 1010.3
20260507145532 55 301 6.1 13.9 0.00 0.29 0.00 43 1010.3
20260507145029 55 359 5.2 11.3 0.00 0.29 0.00 46 1010.4
20260507144550 55 326 3.5 12.2 0.00 0.29 0.00 48 1010.5
20260507144030 54 309 7.0 12.2 0.00 0.29 0.00 42 1010.5
20260507143532 55 331 4.3 12.2 0.00 0.29 0.00 48 1010.6
20260507143042 54 329 4.3 12.2 0.00 0.29 0.00 43 1010.6
20260507142530 54 284 6.1 14.8 0.00 0.29 0.00 45 1010.6
20260507142029 54 354 4.3 14.8 0.00 0.29 0.00 48 1010.5
20260507141542 54 304 7.0 13.9 0.00 0.29 0.00 43 1010.4
20260507141033 54 23 3.5 8.7 0.00 0.29 0.00 44 1010.4
20260507140530 54 314 2.6 13.0 0.00 0.29 0.00 46 1010.4
20260507140104 54 271 3.5 13.0 0.00 0.29 0.00 47 1010.4
20260507135530 54 356 1.7 7.8 0.00 0.29 0.00 54 1010.2
20260507135030 54 159 2.6 8.7 0.00 0.29 0.00 46 1010.2
20260507134541 53 249 5.2 10.4 0.00 0.29 0.00 46 1010.2
20260507134030 54 342 2.6 10.4 0.00 0.29 0.00 48 1010.2
20260507133530 53 296 2.6 8.7 0.00 0.29 0.00 51 1010.2
20260507133048 53 347 4.3 8.7 0.00 0.29 0.00 50 1010.1
20260507132529 53 358 1.7 12.2 0.00 0.29 0.00 49 1010.2
20260507132029 53 274 5.2 12.2 0.00 0.29 0.00 49 1010.2
20260507131552 53 336 2.6 8.7 0.00 0.29 0.00 49 1010.2
20260507131031 53 313 4.3 8.7 0.00 0.29 0.00 51 1010.1
20260507130534 53 297 1.7 13.0 0.00 0.29 0.00 55 1009.9
20260507130051 52 316 3.5 13.0 0.00 0.29 0.00 56 1010.2
20260507125534 52 350 2.6 7.8 0.00 0.29 0.00 55 1010.1
20260507125030 52 340 2.6 8.7 0.00 0.29 0.00 56 1010.0
20260507124552 51 297 2.6 8.7 0.00 0.29 0.00 56 1010.0
20260507124029 51 236 5.2 10.4 0.00 0.29 0.00 55 1010.1
20260507123531 51 295 4.3 12.2 0.00 0.29 0.00 59 1010.1
20260507123053 51 89 3.5 12.2 0.00 0.29 0.00 59 1010.2
20260507122533 51 340 3.5 11.3 0.00 0.29 0.00 58 1010.2
20260507122030 51 252 3.5 11.3 0.00 0.29 0.00 59 1010.2
20260507121542 50 284 4.3 11.3 0.00 0.29 0.00 59 1010.3